When you browse on this site, cookies collect data to enhance your experience and personalize the content and advertising you see.
Visit our Privacy Policy to learn more. By continuing to use the site, you agree to this use of cookies and data.
  • In Österreich
  • Länderverzeichnis
  • Für 7 Tage
  • Wassertemperatur
  • Wetterkarte
  • News
  • Widgets
  • user-avatar
    Anmelden

    Stündliche Wetter Mihalovo

    Heute, 25 Februar, Dienstag

    Zeit Temperatur Niederschläge Wind Luftdruck Luftfeuchtigkeit
    00:00 -3°C° 0 mm 4 m/S 731 mmHg 76%
    01:00 -2°C° 0 mm 3 m/S 731 mmHg 77%
    02:00 -2°C° 0 mm 3 m/S 731 mmHg 79%
    03:00 -4°C° 0 mm 3 m/S 732 mmHg 80%
    04:00 -4°C° 0 mm 3 m/S 732 mmHg 81%
    05:00 -4°C° 0 mm 3 m/S 732 mmHg 82%
    06:00 -4°C° 0 mm 3 m/S 732 mmHg 82%
    07:00 -4°C° 0 mm 3 m/S 732 mmHg 82%
    08:00 -3°C° 0 mm 2 m/S 732 mmHg 83%
    09:00 -2°C° 0 mm 3 m/S 732 mmHg 76%
    10:00 -1°C° 0 mm 3 m/S 732 mmHg 69%
    11:00 0°C° 0 mm 3 m/S 732 mmHg 62%
    12:00 +1°C° 0 mm 3 m/S 732 mmHg 60%
    13:00 +1°C° 0 mm 3 m/S 732 mmHg 57%
    14:00 +1°C° 0 mm 3 m/S 732 mmHg 55%
    15:00 +1°C° 0 mm 3 m/S 731 mmHg 59%
    16:00 +1°C° 0 mm 2 m/S 731 mmHg 64%
    17:00 -1°C° 0 mm 2 m/S 731 mmHg 69%
    18:00 -1°C° 0 mm 2 m/S 731 mmHg 71%
    19:00 -1°C° 0 mm 3 m/S 730 mmHg 72%
    20:00 -1°C° 0 mm 3 m/S 730 mmHg 74%
    21:00 -1°C° 0 mm 3 m/S 729 mmHg 77%
    22:00 -2°C° 0 mm 4 m/S 729 mmHg 81%
    23:00 -2°C° 0 mm 4 m/S 728 mmHg 84%

    Morgen, 26 Februar, Mittwoch

    Zeit Temperatur Niederschläge Wind Luftdruck Luftfeuchtigkeit
    00:00 -2°C° 0.2 mm 4 m/S 727 mmHg 88%
    01:00 -1°C° 0.2 mm 4 m/S 727 mmHg 92%
    02:00 -1°C° 0.2 mm 4 m/S 726 mmHg 96%
    03:00 -1°C° 0.1 mm 4 m/S 726 mmHg 96%
    04:00 0°C° 0.1 mm 4 m/S 725 mmHg 96%
    05:00 0°C° 0.1 mm 4 m/S 725 mmHg 96%
    06:00 0°C° 0.1 mm 4 m/S 724 mmHg 95%
    07:00 0°C° 0.1 mm 5 m/S 724 mmHg 94%
    08:00 +1°C° 0.1 mm 5 m/S 723 mmHg 94%
    09:00 +1°C° 0.8 mm 5 m/S 723 mmHg 94%
    10:00 +1°C° 0.8 mm 5 m/S 723 mmHg 95%
    11:00 +1°C° 0.8 mm 4 m/S 723 mmHg 95%
    12:00 +1°C° 0.1 mm 4 m/S 723 mmHg 95%
    13:00 +2°C° 0.1 mm 3 m/S 723 mmHg 95%
    14:00 +3°C° 0.1 mm 2 m/S 723 mmHg 95%
    15:00 +3°C° 0 mm 2 m/S 723 mmHg 95%
    16:00 +2°C° 0 mm 2 m/S 724 mmHg 95%
    17:00 +3°C° 0 mm 1 m/S 724 mmHg 95%
    18:00 +3°C° 0 mm 1 m/S 724 mmHg 95%
    19:00 +2°C° 0 mm 1 m/S 724 mmHg 95%
    20:00 +2°C° 0 mm 1 m/S 724 mmHg 95%
    21:00 +2°C° 0 mm 1 m/S 724 mmHg 94%
    22:00 +2°C° 0 mm 1 m/S 724 mmHg 94%
    23:00 +2°C° 0 mm 1 m/S 724 mmHg 94%

    übermorgen, 27 Februar, Donnerstag

    Zeit Temperatur Niederschläge Wind Luftdruck Luftfeuchtigkeit
    00:00 +2°C° 0 mm 1 m/S 724 mmHg 95%
    01:00 +2°C° 0 mm 1 m/S 723 mmHg 95%
    02:00 +2°C° 0 mm 1 m/S 723 mmHg 96%
    03:00 +2°C° 0.1 mm 1 m/S 723 mmHg 96%
    04:00 +2°C° 0.1 mm 1 m/S 722 mmHg 96%
    05:00 +2°C° 0.1 mm 1 m/S 722 mmHg 96%
    06:00 +2°C° 0.2 mm 1 m/S 722 mmHg 96%
    07:00 +1°C° 0.2 mm 2 m/S 722 mmHg 97%
    08:00 -1°C° 0.2 mm 2 m/S 722 mmHg 97%
    09:00 +1°C° 0.1 mm 2 m/S 722 mmHg 97%
    10:00 +1°C° 0.1 mm 2 m/S 722 mmHg 96%
    11:00 +1°C° 0.1 mm 2 m/S 722 mmHg 96%
    12:00 +1°C° 0 mm 2 m/S 722 mmHg 95%
    13:00 +2°C° 0 mm 2 m/S 722 mmHg 94%
    14:00 +2°C° 0 mm 2 m/S 722 mmHg 93%
    15:00 +2°C° 0 mm 1 m/S 722 mmHg 94%
    16:00 +2°C° 0 mm 1 m/S 722 mmHg 94%
    17:00 +2°C° 0 mm 1 m/S 722 mmHg 95%
    18:00 +1°C° 0.1 mm 2 m/S 722 mmHg 96%
    19:00 0°C° 0.1 mm 3 m/S 723 mmHg 96%
    20:00 -2°C° 0.1 mm 4 m/S 723 mmHg 96%
    21:00 -2°C° 0.1 mm 4 m/S 724 mmHg 92%
    22:00 -2°C° 0.1 mm 4 m/S 724 mmHg 88%
    23:00 -2°C° 0.1 mm 4 m/S 724 mmHg 84%

    28 Februar, Freitag

    Zeit Temperatur Niederschläge Wind Luftdruck Luftfeuchtigkeit
    00:00 -2°C° 0 mm 3 m/S 724 mmHg 85%
    01:00 -2°C° 0 mm 3 m/S 725 mmHg 85%
    02:00 -4°C° 0 mm 3 m/S 725 mmHg 86%
    03:00 -4°C° 0 mm 3 m/S 725 mmHg 85%
    04:00 -4°C° 0 mm 3 m/S 726 mmHg 85%
    05:00 -4°C° 0 mm 3 m/S 726 mmHg 85%
    06:00 -4°C° 0 mm 3 m/S 726 mmHg 82%
    07:00 -4°C° 0 mm 3 m/S 727 mmHg 80%
    08:00 -4°C° 0 mm 4 m/S 727 mmHg 78%
    09:00 -3°C° 0 mm 4 m/S 727 mmHg 73%
    10:00 -3°C° 0 mm 4 m/S 728 mmHg 69%
    11:00 -2°C° 0 mm 4 m/S 728 mmHg 64%
    12:00 -2°C° 0 mm 4 m/S 728 mmHg 59%
    13:00 -1°C° 0 mm 4 m/S 729 mmHg 54%
    14:00 -1°C° 0 mm 4 m/S 729 mmHg 49%
    15:00 -1°C° 0 mm 3 m/S 730 mmHg 52%
    16:00 -1°C° 0 mm 2 m/S 730 mmHg 56%
    17:00 -2°C° 0 mm 2 m/S 730 mmHg 60%
    18:00 -2°C° 0 mm 2 m/S 731 mmHg 63%
    19:00 -1°C° 0 mm 1 m/S 731 mmHg 66%
    20:00 -1°C° 0 mm 1 m/S 732 mmHg 69%
    21:00 -1°C° 0 mm 1 m/S 732 mmHg 70%
    22:00 -1°C° 0 mm 1 m/S 732 mmHg 71%
    23:00 -1°C° 0 mm 1 m/S 732 mmHg 72%

    29 Februar, Samstag

    Zeit Temperatur Niederschläge Wind Luftdruck Luftfeuchtigkeit
    00:00 -1°C° 0 mm 1 m/S 732 mmHg 72%
    01:00 -1°C° 0 mm 1 m/S 732 mmHg 72%
    02:00 -1°C° 0 mm 1 m/S 732 mmHg 72%
    03:00 -1°C° 0 mm 1 m/S 732 mmHg 72%
    04:00 -1°C° 0 mm 1 m/S 732 mmHg 72%
    05:00 -1°C° 0 mm 1 m/S 732 mmHg 72%
    06:00 -3°C° 0 mm 2 m/S 732 mmHg 71%
    07:00 -3°C° 0 mm 2 m/S 732 mmHg 70%
    08:00 -2°C° 0 mm 2 m/S 732 mmHg 69%
    09:00 -2°C° 0 mm 3 m/S 732 mmHg 71%
    10:00 -1°C° 0 mm 3 m/S 733 mmHg 73%
    11:00 -1°C° 0 mm 3 m/S 733 mmHg 76%
    12:00 -1°C° 0 mm 3 m/S 733 mmHg 69%
    13:00 -1°C° 0 mm 3 m/S 733 mmHg 62%
    14:00 -1°C° 0 mm 3 m/S 733 mmHg 56%
    15:00 -1°C° 0 mm 3 m/S 733 mmHg 61%
    16:00 -2°C° 0 mm 3 m/S 734 mmHg 66%
    17:00 -4°C° 0 mm 3 m/S 734 mmHg 71%
    18:00 -4°C° 0 mm 3 m/S 734 mmHg 74%
    19:00 -3°C° 0 mm 2 m/S 735 mmHg 76%
    20:00 -3°C° 0 mm 2 m/S 735 mmHg 79%
    21:00 -3°C° 0 mm 2 m/S 735 mmHg 80%
    22:00 -4°C° 0 mm 2 m/S 736 mmHg 81%
    23:00 -4°C° 0 mm 2 m/S 736 mmHg 83%

    1 März, Sonntag

    Zeit Temperatur Niederschläge Wind Luftdruck Luftfeuchtigkeit
    00:00 -4°C° 0 mm 2 m/S 736 mmHg 83%
    01:00 -4°C° 0 mm 2 m/S 737 mmHg 84%
    02:00 -4°C° 0 mm 2 m/S 737 mmHg 85%
    03:00 -4°C° 0 mm 2 m/S 737 mmHg 86%
    04:00 -2°C° 0 mm 1 m/S 737 mmHg 87%
    05:00 -2°C° 0 mm 1 m/S 738 mmHg 88%
    06:00 -2°C° 0 mm 1 m/S 738 mmHg 86%
    07:00 -2°C° 0 mm 1 m/S 738 mmHg 84%
    08:00 -4°C° 0 mm 2 m/S 739 mmHg 82%
    09:00 -3°C° 0 mm 2 m/S 739 mmHg 75%
    10:00 -2°C° 0 mm 2 m/S 739 mmHg 68%
    11:00 -1°C° 0 mm 2 m/S 740 mmHg 61%
    12:00 -1°C° 0 mm 2 m/S 740 mmHg 57%
    13:00 +1°C° 0 mm 2 m/S 740 mmHg 53%
    14:00 +1°C° 0 mm 2 m/S 740 mmHg 49%
    15:00 +1°C° 0 mm 2 m/S 740 mmHg 53%
    16:00 -1°C° 0 mm 2 m/S 740 mmHg 57%
    17:00 -2°C° 0 mm 2 m/S 740 mmHg 61%
    18:00 -2°C° 0 mm 2 m/S 740 mmHg 62%
    19:00 -2°C° 0 mm 3 m/S 740 mmHg 63%
    20:00 -2°C° 0 mm 3 m/S 740 mmHg 65%
    21:00 -2°C° 0 mm 3 m/S 740 mmHg 65%
    22:00 -3°C° 0 mm 4 m/S 740 mmHg 66%
    23:00 -3°C° 0 mm 4 m/S 740 mmHg 67%
    Mehr zeigen